Regional Weather Roundup
Issued by NWS

Home | Current Version | Previous Version | Text Only | Print | Product List | Glossary On
Versions: 1 2 3 4 5 6 7 8 9 10 11 12 13 14 15 16 17 18 19 20 21 22 23 24 25 26 27 28 29 30 31 32 33 34 35 36 37 38 39 40 41 42 43 44 45 46 47 48 49 50
000
ASUS45 KSLC 300410
RWRUT

UTAH REGIONAL WEATHER ROUNDUP
NATIONAL WEATHER SERVICE SALT LAKE CITY UT
1000 PM MDT WED JUL 29 2015

UTZ001>011-023>025-300500-

NORTHERN UTAH

CITY           SKY/WX    TMP DP  RH WIND       PRES   REMARKS
BRIGHAM CITY   CLEAR     73  33  22 CALM      30.23R
HILL AFB       NOT AVBL
LOGAN          CLEAR     69  22  16 SE10      30.25R
OGDEN          CLEAR     70  33  25 CALM      30.23R
PROVO AIRPORT  CLEAR     73  45  35 NW5       30.24R
SALT LAKE CITY PTCLDY    76  40  27 W3        30.22R
VERNAL         CLEAR     68  33  27 W5        30.25R
WENDOVER       CLEAR     75  28  17 W5        30.23R
HEBER CITY     CLEAR     64  30  27 NE3       30.31R
WEST JORDAN    CLEAR     72  34  25 W7        30.25R

$$

UTZ012>022-026-027-300500-

SOUTHERN/CENTRAL UTAH

CITY           SKY/WX    TMP DP  RH WIND       PRES   REMARKS
BLANDING       CLEAR     76  36  23 SE8       30.35R
BRYCE CANYON   PTCLDY    64  27  24 CALM      30.42R
CEDAR CITY     PTCLDY    73  22  14 NE7       30.25R
DELTA          CLEAR     77  21  12 NE9       30.22R
HANKSVILLE     PTCLDY    79  27  14 E5        30.16R
MILFORD        PTCLDY    74  19  12 NW6       30.21R
MOAB/CYNLANDS  CLEAR     78  24  13 SW6       30.14R
PRICE          PTCLDY    77  21  12 N9        30.30R
ST GEORGE      CLEAR     88  32  13 CALM      30.01R
KANAB          PTCLDY    82  32  16 N8        30.22R

$$

REGIONAL REPORTS     COLORADO/ARIZONA

CITY           SKY/WX    TMP DP  RH WIND       PRES   REMARKS
CRAIG, CO      PTCLDY    58  26  29 CALM      30.35R
GRAND JUNCTION PTCLDY    75  25  15 S7        30.19R
RIFLE          PTCLDY    75  25  15 W6        30.27R
MONTROSE       PTCLDY    70  39  32 SE9       30.28R
CORTEZ         CLEAR     65  46  50 CALM      30.30R
PAGE, AZ       PTCLDY    88  46  23 S17G29    30.11R
GRAND CANYON   MOCLDY    76  44  32 SE12      30.34R
KINGMAN        CLOUDY    87  54  32 W18G26    30.07S
FLAGSTAFF      CLOUDY    67  50  54 SE5       30.41R

$$

REGIONAL REPORTS    NEVADA/IDAHO/WYOMING

CITY           SKY/WX    TMP DP  RH WIND       PRES   REMARKS
LAS VEGAS, NV  CLOUDY    90  52  27 S10       29.92R
ELY            CLEAR     74  22  14 CALM      30.30R
ELKO           CLEAR     74  17  11 N6        30.22R
POCATELLO, ID  CLEAR     64  40  41 E6        30.26R
BURLEY         CLEAR     65  47  52 CALM      30.21R
EVANSTON, WY   CLEAR     63  17  17 W12       30.43R
ROCK SPRINGS   CLEAR     66   9  10 S5        30.39R
KEMMERER       CLEAR     59  28  31 N8        30.44R

$$



USA.gov is the U.S. government's official web portal to all federal, state and local government web resources and services.